Погода в Болдине

Россия / Владимирская область     55°57′14″N   39°44′17″E
темп.,
°C
ветер,
м/с
пор.,
м/с
влажн.,
%
обл.,
%
осадки,
мм/ч
давл.,
гПа
погр.,
м
8 мая, сб
сб800:00+5ююв2673100 0.0 1014113
03:00+5ююв3976100 0.0 1014179
06:00+7ююв41371100 0.0 1012427
09:00+10ю41267100 0.0 10121313
12:00+10ююв61381100 0.9 10101456
15:00+8ююв61687100 4.1 10081310
18:00+9юв51692100 2.7 10051401
21:00+9юв51396100 8.6 1001953
9 мая, вс
вс900:00+9ю3797100 1.0 1001321
03:00+9ю4893100 1.2 1001700
06:00+7зсз5896100 0.3 1002687
09:00+3зсз51397100 2.2 1008799
12:00+5зсз51089100 1.4 10121007
15:00+9сз5971100 1.6 10151510
18:00+10ссз3106197 0.1 10171950
21:00+5зсз24805 0.1 102183
10 мая, пн
пн1000:00+3сз37851 0.0 1023124
03:00+2сз37851 0.0 1025118
06:00+4ссз28790 0.0 1028200
09:00+10с35490 0.0 1029888
12:00+13с34380 0.0 10291328
15:00+14с34395 0.0 10291425
18:00+13св23545 0.0 1029458
21:00+8ссв22665 0.0 103011
11 мая, вт
вт1100:00+6всв22694 0.0 103119
03:00+5св22765 0.0 103216
06:00+7св23725 0.0 103292
09:00+13всв24517 0.0 1032591
12:00+16всв45425 0.0 10311109
15:00+18всв45430 0.0 10301293
18:00+17всв36580 0.0 1029506
21:00+10в22795 0.0 103037
12 мая, ср
ср1200:00+8всв37824 0.0 1030107
03:00+7всв39854 0.0 1029162
06:00+9всв310770 0.0 1029279
09:00+15в47563 0.0 1028544
12:00+19в464972 0.0 10281069
15:00+21в574924 0.0 10261384
18:00+19в376588 0.0 1026429
21:00+14всв3108458 0.0 1026234